K6OUA-11 Weather Reports


Display with metric or nautical units.
time (UTC)temp
F
wind
direction
speed
MPH
gust
MPH
rain 1hr
in
rain 24hr
in
rain mn
in
humidity
%
barometer
mb
20181212205426 71 276 5.0 7.0 0.00 0.00 0.00 42 1012.5
20181212205127 71 270 5.0 6.0 0.00 0.00 0.00 43 1012.5
20181212204824 71 256 2.0 6.0 0.00 0.00 0.00 43 1012.7
20181212204012 70 236 3.0 7.0 0.00 0.00 0.00 43 1012.6
20181212203920 70 236 3.0 7.0 0.00 0.00 0.00 43 1012.6
20181212203619 70 167 3.0 7.0 0.00 0.00 0.00 43 1012.6
20181212203318 70 270 2.0 6.0 0.00 0.00 0.00 43 1012.8
20181212202716 69 225 0.0 4.0 0.00 0.00 0.00 43 1012.7
20181212202417 69 225 0.0 5.0 0.00 0.00 0.00 43 1012.6
20181212202116 70 270 3.0 5.0 0.00 0.00 0.00 43 1012.5
20181212201210 70 292 2.0 4.0 0.00 0.00 0.00 43 1012.5
20181212200610 70 261 2.0 5.0 0.00 0.00 0.00 43 1012.4
20181212200310 70 267 1.0 5.0 0.00 0.00 0.00 43 1012.5
20181212200006 71 270 1.0 4.0 0.00 0.00 0.00 43 1012.4
20181212195705 71 270 3.0 6.0 0.00 0.00 0.00 43 1012.4
20181212195407 71 265 4.0 6.0 0.00 0.00 0.00 43 1012.4
20181212195405 71 265 4.0 6.0 0.00 0.00 0.00 43 1012.4
20181212195106 71 254 4.0 4.0 0.00 0.00 0.00 43 1012.3
20181212195104 71 254 4.0 4.0 0.00 0.00 0.00 43 1012.3
20181212194803 71 265 2.0 4.0 0.00 0.00 0.00 43 1012.2
20181212194502 71 258 3.0 4.0 0.00 0.00 0.00 43 1012.2
20181212193557 71 238 3.0 3.0 0.00 0.00 0.00 43 1012.3
20181212193258 71 270 1.0 3.0 0.00 0.00 0.00 43 1012.2
20181212192955 72 238 3.0 3.0 0.00 0.00 0.00 42 1012.2
20181212192353 72 247 1.0 2.0 0.00 0.00 0.00 42 1012.3
20181212192052 72 180 2.0 3.0 0.00 0.00 0.00 42 1012.2
20181212191753 72 211 3.0 3.0 0.00 0.00 0.00 42 1012.3
20181212191449 72 180 3.0 4.0 0.00 0.00 0.00 42 1012.3
20181212191345 72 182 4.0 4.0 0.00 0.00 0.00 42 1012.3
20181212191150 72 182 4.0 4.0 0.00 0.00 0.00 42 1012.3
20181212191020 72 225 0.0 3.0 0.00 0.00 0.00 42 1012.3
20181212190849 72 225 0.0 3.0 0.00 0.00 0.00 42 1012.3
20181212190815 72 220 3.0 4.0 0.00 0.00 0.00 42 1012.3
20181212190546 72 220 3.0 4.0 0.00 0.00 0.00 42 1012.3
20181212190520 72 247 1.0 4.0 0.00 0.00 0.00 43 1012.4
20181212190247 72 247 1.0 4.0 0.00 0.00 0.00 43 1012.4
20181212190123 72 261 3.0 4.0 0.00 0.00 0.00 42 1012.4
20181212185944 72 261 3.0 4.0 0.00 0.00 0.00 42 1012.4
20181212185645 72 270 2.0 3.0 0.00 0.00 0.00 42 1012.4
20181212185041 72 270 0.0 3.0 0.00 0.00 0.00 43 1012.5
20181212184741 72 180 2.0 3.0 0.00 0.00 0.00 44 1012.5
20181212184623 71 236 1.0 2.0 0.00 0.00 0.00 44 1012.5
20181212184442 71 236 1.0 2.0 0.00 0.00 0.00 44 1012.5
20181212184438 71 236 1.0 2.0 0.00 0.00 0.00 44 1012.5
20181212184341 71 180 1.0 2.0 0.00 0.00 0.00 44 1012.6
20181212184137 71 180 1.0 2.0 0.00 0.00 0.00 44 1012.6
20181212184026 71 265 1.0 2.0 0.00 0.00 0.00 44 1012.6
20181212183838 71 265 1.0 2.0 0.00 0.00 0.00 44 1012.6
20181212183637 70 213 0.0 2.0 0.00 0.00 0.00 45 1012.5
20181212183538 70 213 0.0 2.0 0.00 0.00 0.00 45 1012.5
20181212183536 70 213 0.0 2.0 0.00 0.00 0.00 45 1012.5
20181212183404 70 225 1.0 3.0 0.00 0.00 0.00 46 1012.4
20181212183235 70 225 1.0 3.0 0.00 0.00 0.00 46 1012.4
20181212182933 69 191 3.0 3.0 0.00 0.00 0.00 46 1012.5
20181212182810 69 180 1.0 2.0 0.00 0.00 0.00 47 1012.7
20181212182634 69 180 1.0 2.0 0.00 0.00 0.00 47 1012.7
20181212182600 69 119 1.0 2.0 0.00 0.00 0.00 47 1012.6
20181212182332 69 119 1.0 2.0 0.00 0.00 0.00 47 1012.6
20181212182320 68 148 2.0 3.0 0.00 0.00 0.00 48 1012.7
20181212182031 68 148 2.0 3.0 0.00 0.00 0.00 48 1012.7
20181212181730 68 225 0.0 2.0 0.00 0.00 0.00 49 1012.7
20181212181728 68 225 0.0 2.0 0.00 0.00 0.00 49 1012.7
20181212181635 67 211 0.0 2.0 0.00 0.00 0.00 49 1012.7
20181212181429 67 211 0.0 2.0 0.00 0.00 0.00 49 1012.7
20181212181128 67 101 2.0 2.0 0.00 0.00 0.00 51 1012.8
20181212180948 66 0 1.0 2.0 0.00 0.00 0.00 52 1012.8
20181212180825 66 0 1.0 2.0 0.00 0.00 0.00 52 1012.8
20181212180659 65 225 0.0 3.0 0.00 0.00 0.00 53 1012.8
20181212180525 65 225 0.0 3.0 0.00 0.00 0.00 53 1012.8
20181212180402 64 225 1.0 3.0 0.00 0.00 0.00 53 1012.8
20181212180224 64 225 1.0 3.0 0.00 0.00 0.00 53 1012.8
20181212180128 64 225 0.0 3.0 0.00 0.00 0.00 53 1012.9
20181212175923 64 225 0.0 3.0 0.00 0.00 0.00 53 1012.9
20181212175750 63 315 0.0 0.0 0.00 0.00 0.00 53 1012.8
20181212175621 63 315 0.0 0.0 0.00 0.00 0.00 53 1012.8
20181212175516 63 315 1.0 2.0 0.00 0.00 0.00 53 1012.5
20181212175322 63 315 1.0 2.0 0.00 0.00 0.00 53 1012.5
20181212175320 63 315 1.0 2.0 0.00 0.00 0.00 53 1012.5
20181212175131 62 270 1.0 1.0 0.00 0.00 0.00 54 1012.7
20181212175020 62 270 1.0 1.0 0.00 0.00 0.00 54 1012.7
20181212175018 62 270 1.0 1.0 0.00 0.00 0.00 54 1012.7
20181212174719 62 270 1.0 1.0 0.00 0.00 0.00 55 1012.7
20181212174600 62 225 0.0 2.0 0.00 0.00 0.00 55 1012.8
20181212174416 62 225 0.0 2.0 0.00 0.00 0.00 55 1012.8
20181212174115 62 225 0.0 1.0 0.00 0.00 0.00 56 1012.8
20181212173934 61 225 0.0 4.0 0.00 0.00 0.00 57 1012.7
20181212173815 61 225 0.0 4.0 0.00 0.00 0.00 57 1012.7
20181212173645 61 234 2.0 4.0 0.00 0.00 0.00 58 1012.8
20181212173513 61 234 2.0 4.0 0.00 0.00 0.00 58 1012.8
20181212173350 60 225 1.0 2.0 0.00 0.00 0.00 59 1012.8
20181212173214 60 225 1.0 2.0 0.00 0.00 0.00 59 1012.8
20181212173212 60 225 1.0 2.0 0.00 0.00 0.00 59 1012.8
20181212171859 55 144 2.0 2.0 0.00 0.00 0.00 64 1012.8
20181212171708 55 144 2.0 2.0 0.00 0.00 0.00 64 1012.8
20181212171332 53 99 2.0 3.0 0.00 0.00 0.00 63 1012.6
20181212171107 53 99 2.0 3.0 0.00 0.00 0.00 63 1012.6
20181212171011 53 132 3.0 5.0 0.00 0.00 0.00 63 1012.5
20181212170805 53 132 3.0 5.0 0.00 0.00 0.00 63 1012.5
20181212170504 53 83 3.0 6.0 0.00 0.00 0.00 63 1012.4
20181212170203 53 85 5.0 6.0 0.00 0.00 0.00 63 1012.6
20181212170110 53 90 4.0 6.0 0.00 0.00 0.00 63 1012.3
20181212165903 53 90 4.0 6.0 0.00 0.00 0.00 63 1012.3
20181212164958 52 135 3.0 4.0 0.00 0.00 0.00 65 1012.6
20181212164847 52 130 2.0 4.0 0.00 0.00 0.00 64 1012.7
20181212164658 52 130 2.0 4.0 0.00 0.00 0.00 64 1012.7
20181212164655 52 130 2.0 4.0 0.00 0.00 0.00 64 1012.7
20181212164619 52 90 3.0 4.0 0.00 0.00 0.00 65 1012.7
20181212164355 52 90 3.0 4.0 0.00 0.00 0.00 65 1012.7
20181212163937 52 112 2.0 3.0 0.00 0.00 0.00 65 1012.6
20181212163752 52 112 2.0 3.0 0.00 0.00 0.00 65 1012.6
20181212163732 52 135 1.0 3.0 0.00 0.00 0.00 66 1012.5
20181212163453 52 135 1.0 3.0 0.00 0.00 0.00 66 1012.5
20181212162851 51 90 3.0 4.0 0.00 0.00 0.00 67 1012.7
20181212162549 51 123 2.0 4.0 0.00 0.00 0.00 67 1012.6
20181212162523 50 128 2.0 4.0 0.00 0.00 0.00 68 1012.6
20181212162249 50 128 2.0 4.0 0.00 0.00 0.00 68 1012.6
20181212162246 50 128 2.0 4.0 0.00 0.00 0.00 68 1012.6
20181212161947 49 92 3.0 3.0 0.00 0.00 0.00 68 1012.5
20181212161608 48 135 1.0 3.0 0.00 0.00 0.00 68 1012.1
20181212161525 48 135 1.0 3.0 0.00 0.00 0.00 68 1012.1
20181212161343 48 135 1.0 3.0 0.00 0.00 0.00 68 1012.1
20181212161119 48 135 2.0 2.0 0.00 0.00 0.00 69 1012.0
20181212161044 48 135 2.0 3.0 0.00 0.00 0.00 68 1012.0
20181212160647 48 135 2.0 2.0 0.00 0.00 0.00 69 1012.0
20181212160441 48 135 2.0 2.0 0.00 0.00 0.00 69 1012.0
20181212160430 47 90 1.0 2.0 0.00 0.00 0.00 69 1012.0
20181212160139 47 90 1.0 2.0 0.00 0.00 0.00 69 1012.0
20181212155538 47 78 4.0 5.0 0.00 0.00 0.00 69 1011.9
20181212155416 47 90 4.0 4.0 0.00 0.00 0.00 70 1011.9
20181212155235 47 90 4.0 4.0 0.00 0.00 0.00 70 1011.9
20181212154742 46 130 1.0 3.0 0.00 0.00 0.00 70 1012.1
20181212154635 46 130 1.0 3.0 0.00 0.00 0.00 70 1012.1
20181212154136 46 90 5.0 5.0 0.00 0.00 0.00 70 1011.7
20181212154032 46 90 5.0 5.0 0.00 0.00 0.00 70 1011.7
20181212153734 46 90 4.0 5.0 0.00 0.00 0.00 70 1011.6
20181212153523 45 90 5.0 6.0 0.00 0.00 0.00 71 1011.9
20181212153333 45 94 4.0 6.0 0.00 0.00 0.00 71 1011.8
20181212153128 45 94 4.0 6.0 0.00 0.00 0.00 71 1011.8
20181212153026 45 90 5.0 6.0 0.00 0.00 0.00 71 1011.9
20181212152827 45 90 5.0 6.0 0.00 0.00 0.00 71 1011.9
20181212152402 44 96 3.0 4.0 0.00 0.00 0.00 71 1012.2
20181212152225 44 96 3.0 4.0 0.00 0.00 0.00 71 1012.2
20181212152136 44 128 3.0 4.0 0.00 0.00 0.00 70 1012.3
20181212151924 44 128 3.0 4.0 0.00 0.00 0.00 70 1012.3
20181212151824 44 135 2.0 4.0 0.00 0.00 0.00 70 1012.2
20181212151715 44 135 2.0 4.0 0.00 0.00 0.00 70 1012.2
20181212151622 44 135 2.0 4.0 0.00 0.00 0.00 70 1012.2
20181212151519 44 117 2.0 4.0 0.00 0.00 0.00 70 1012.1
20181212151415 44 117 2.0 4.0 0.00 0.00 0.00 70 1012.1
20181212151322 44 117 2.0 4.0 0.00 0.00 0.00 70 1012.1
20181212151221 44 90 3.0 4.0 0.00 0.00 0.00 70 1012.2
20181212151106 44 90 3.0 4.0 0.00 0.00 0.00 70 1012.2
20181212151021 44 90 3.0 4.0 0.00 0.00 0.00 70 1012.2
20181212150915 44 130 2.0 3.0 0.00 0.00 0.00 70 1012.0
20181212150720 44 130 2.0 3.0 0.00 0.00 0.00 70 1012.0
20181212150537 44 135 1.0 1.0 0.00 0.00 0.00 69 1011.9
20181212150419 44 135 1.0 1.0 0.00 0.00 0.00 69 1011.9
20181212150258 43 135 1.0 2.0 0.00 0.00 0.00 70 1011.6
20181212150118 43 135 1.0 2.0 0.00 0.00 0.00 70 1011.6
20181212150116 43 135 1.0 2.0 0.00 0.00 0.00 70 1011.6
20181212145817 43 45 1.0 2.0 0.00 0.00 0.00 70 1011.6
20181212145640 43 45 1.0 1.0 0.00 0.00 0.00 70 1011.5
20181212145514 43 45 1.0 1.0 0.00 0.00 0.00 70 1011.5
20181212145215 43 45 1.0 3.0 0.00 0.00 0.00 70 1011.3
20181212145121 43 45 2.0 3.0 0.00 0.00 0.00 71 1011.4
20181212144913 43 45 2.0 3.0 0.00 0.00 0.00 71 1011.4
20181212144613 43 135 2.0 3.0 0.00 0.00 0.00 70 1011.4
20181212144514 44 112 2.0 3.0 0.00 0.00 0.00 69 1011.6
20181212144310 44 112 2.0 3.0 0.00 0.00 0.00 69 1011.6
20181212144153 44 135 2.0 2.0 0.00 0.00 0.00 68 1011.7
20181212144010 44 135 2.0 2.0 0.00 0.00 0.00 68 1011.7
20181212143821 44 135 2.0 2.0 0.00 0.00 0.00 68 1011.7
20181212143710 44 135 2.0 2.0 0.00 0.00 0.00 68 1011.7
20181212143554 44 135 1.0 1.0 0.00 0.00 0.00 68 1011.8
20181212143408 44 135 1.0 1.0 0.00 0.00 0.00 68 1011.8
20181212142705 44 225 1.0 3.0 0.00 0.00 0.00 68 1011.8
20181212142504 44 225 1.0 3.0 0.00 0.00 0.00 68 1011.8
20181212142326 44 180 1.0 3.0 0.00 0.00 0.00 68 1011.9
20181212142204 44 180 1.0 3.0 0.00 0.00 0.00 68 1011.9
20181212141504 44 20 3.0 4.0 0.00 0.00 0.00 68 1011.6
20181212141406 44 20 3.0 4.0 0.00 0.00 0.00 68 1011.6
20181212141300 44 20 3.0 4.0 0.00 0.00 0.00 68 1011.6
20181212141259 44 20 3.0 4.0 0.00 0.00 0.00 68 1011.6
20181212141156 44 45 3.0 4.0 0.00 0.00 0.00 68 1011.6
20181212140959 44 45 3.0 4.0 0.00 0.00 0.00 68 1011.6
20181212140658 45 90 3.0 3.0 0.00 0.00 0.00 67 1011.5
20181212140613 45 135 2.0 2.0 0.00 0.00 0.00 66 1011.7
20181212140357 45 135 2.0 2.0 0.00 0.00 0.00 66 1011.7
20181212140355 45 135 2.0 2.0 0.00 0.00 0.00 66 1011.7
20181212140242 45 112 1.0 1.0 0.00 0.00 0.00 65 1011.9
20181212140056 45 112 1.0 1.0 0.00 0.00 0.00 65 1011.9
20181212135908 45 90 1.0 1.0 0.00 0.00 0.00 65 1012.2
20181212135756 45 90 1.0 1.0 0.00 0.00 0.00 65 1012.2
20181212135753 45 90 1.0 1.0 0.00 0.00 0.00 65 1012.2
20181212135556 45 49 1.0 3.0 0.00 0.00 0.00 65 1012.3
20181212135408 45 49 1.0 3.0 0.00 0.00 0.00 65 1012.3
20181212135330 45 49 1.0 3.0 0.00 0.00 0.00 65 1012.3
20181212135152 45 49 1.0 3.0 0.00 0.00 0.00 65 1012.3
20181212135104 45 45 2.0 3.0 0.00 0.00 0.00 66 1012.2
20181212134850 45 45 2.0 3.0 0.00 0.00 0.00 66 1012.2
20181212134742 45 87 2.0 2.0 0.00 0.00 0.00 66 1011.6
20181212134549 45 87 2.0 2.0 0.00 0.00 0.00 66 1011.6
20181212134454 45 69 2.0 3.0 0.00 0.00 0.00 66 1011.7
20181212134249 45 69 2.0 3.0 0.00 0.00 0.00 66 1011.7
20181212134144 45 90 2.0 3.0 0.00 0.00 0.00 65 1011.4
20181212133947 45 90 2.0 3.0 0.00 0.00 0.00 65 1011.4
20181212133646 46 135 2.0 2.0 0.00 0.00 0.00 65 1011.2
20181212133534 46 135 1.0 1.0 0.00 0.00 0.00 64 1011.5
20181212133347 46 135 1.0 1.0 0.00 0.00 0.00 64 1011.5
20181212133344 46 135 1.0 1.0 0.00 0.00 0.00 64 1011.5
20181212133207 46 135 1.0 1.0 0.00 0.00 0.00 64 1011.3
20181212133044 46 135 1.0 1.0 0.00 0.00 0.00 64 1011.3
20181212133030 46 135 1.0 3.0 0.00 0.00 0.00 64 1011.3
20181212132742 46 135 1.0 3.0 0.00 0.00 0.00 64 1011.3
20181212132717 46 90 3.0 3.0 0.00 0.00 0.00 64 1011.3
20181212132441 46 90 3.0 3.0 0.00 0.00 0.00 64 1011.3
20181212132329 46 90 1.0 2.0 0.00 0.00 0.00 63 1011.4
20181212132143 46 90 1.0 2.0 0.00 0.00 0.00 63 1011.4
20181212132140 46 90 1.0 2.0 0.00 0.00 0.00 63 1011.4
20181212132134 46 135 1.0 1.0 0.00 0.00 0.00 64 1011.3
20181212131841 46 135 1.0 1.0 0.00 0.00 0.00 64 1011.3
20181212131539 46 135 0.0 3.0 0.00 0.00 0.00 64 1011.4
20181212131438 47 112 3.0 3.0 0.00 0.00 0.00 64 1011.0
20181212131239 47 112 3.0 3.0 0.00 0.00 0.00 64 1011.0
20181212131137 47 99 2.0 3.0 0.00 0.00 0.00 64 1010.9
20181212130937 47 99 2.0 3.0 0.00 0.00 0.00 64 1010.9
20181212130335 47 74 3.0 4.0 0.00 0.00 0.00 63 1011.3
20181212130228 47 45 3.0 3.0 0.00 0.00 0.00 63 1011.4
20181212130141 47 45 3.0 3.0 0.00 0.00 0.00 63 1011.4
20181212130033 47 45 3.0 3.0 0.00 0.00 0.00 63 1011.4
20181212125942 47 30 2.0 3.0 0.00 0.00 0.00 64 1011.3
20181212125733 47 30 2.0 3.0 0.00 0.00 0.00 64 1011.3
20181212125651 47 90 1.0 5.0 0.00 0.00 0.00 63 1011.2
20181212125431 47 90 1.0 5.0 0.00 0.00 0.00 63 1011.2
20181212125342 47 90 3.0 5.0 0.00 0.00 0.00 64 1011.0
20181212125131 47 90 3.0 5.0 0.00 0.00 0.00 64 1011.0
20181212124732 47 90 4.0 5.0 0.00 0.00 0.00 64 1010.9
20181212124644 47 90 4.0 5.0 0.00 0.00 0.00 64 1010.9
20181212124533 47 110 3.0 5.0 0.00 0.00 0.00 63 1010.8
20181212124528 47 90 4.0 5.0 0.00 0.00 0.00 64 1010.9
20181212124228 47 110 3.0 5.0 0.00 0.00 0.00 63 1010.8
20181212123517 46 90 3.0 3.0 0.00 0.00 0.00 64 1011.5
20181212123323 46 90 3.0 3.0 0.00 0.00 0.00 64 1011.5
20181212123255 46 90 2.0 3.0 0.00 0.00 0.00 64 1011.5
20181212123118 46 90 2.0 3.0 0.00 0.00 0.00 64 1011.5
20181212123022 46 90 2.0 3.0 0.00 0.00 0.00 64 1011.5
20181212123009 46 51 2.0 3.0 0.00 0.00 0.00 64 1011.2
20181212122722 46 51 2.0 3.0 0.00 0.00 0.00 64 1011.2
20181212122651 46 90 3.0 4.0 0.00 0.00 0.00 64 1011.2
20181212122419 46 90 3.0 4.0 0.00 0.00 0.00 64 1011.2
20181212122118 46 90 4.0 4.0 0.00 0.00 0.00 64 1011.0
20181212122035 46 180 2.0 3.0 0.00 0.00 0.00 63 1011.1
20181212121819 46 180 2.0 3.0 0.00 0.00 0.00 63 1011.1
20181212121736 46 180 2.0 2.0 0.00 0.00 0.00 62 1010.9
20181212121516 46 180 2.0 2.0 0.00 0.00 0.00 62 1010.9
20181212121447 46 180 0.0 2.0 0.00 0.00 0.00 61 1011.1
20181212121214 46 180 0.0 2.0 0.00 0.00 0.00 62 1011.2
20181212121118 46 180 0.0 2.0 0.00 0.00 0.00 61 1011.1
20181212120915 46 180 0.0 2.0 0.00 0.00 0.00 61 1011.1
20181212120913 46 180 0.0 2.0 0.00 0.00 0.00 61 1011.1
20181212120806 47 180 1.0 1.0 0.00 0.00 0.00 61 1011.0
20181212120710 47 180 1.0 1.0 0.00 0.00 0.00 61 1011.0
20181212120613 47 180 1.0 1.0 0.00 0.00 0.00 61 1011.0
20181212120603 47 180 1.0 1.0 0.00 0.00 0.00 61 1011.1
20181212120312 47 180 1.0 1.0 0.00 0.00 0.00 61 1011.1
20181212120211 47 180 1.0 3.0 0.00 0.00 0.00 61 1011.0
20181212120010 47 180 1.0 3.0 0.00 0.00 0.00 61 1011.0
20181212115948 48 180 1.0 3.0 0.00 0.00 0.00 60 1011.2
20181212115908 48 180 1.0 3.0 0.00 0.00 0.00 60 1011.2
20181212115711 48 180 1.0 3.0 0.00 0.00 0.00 60 1011.2
20181212115709 48 180 1.0 3.0 0.00 0.00 0.00 60 1011.2
20181212115643 48 180 2.0 2.0 0.00 0.00 0.00 60 1011.2
20181212115409 48 180 2.0 2.0 0.00 0.00 0.00 60 1011.2
20181212115351 48 180 0.0 2.0 0.00 0.00 0.00 60 1011.3
20181212115107 48 180 0.0 2.0 0.00 0.00 0.00 60 1011.3
20181212115020 48 90 0.0 1.0 0.00 0.00 0.00 60 1011.1
20181212114806 48 90 0.0 1.0 0.00 0.00 0.00 60 1011.1
20181212114747 48 135 1.0 3.0 0.00 0.00 0.00 59 1011.2
20181212114505 48 135 1.0 3.0 0.00 0.00 0.00 59 1011.2
20181212113859 48 78 3.0 4.0 0.00 0.00 0.00 61 1011.1
20181212113757 48 87 3.0 3.0 0.00 0.00 0.00 61 1011.0
20181212113556 48 87 3.0 3.0 0.00 0.00 0.00 61 1011.0
20181212113258 48 42 3.0 5.0 0.00 0.00 0.00 61 1011.0
20181212113255 48 90 3.0 3.0 0.00 0.00 0.00 61 1010.9
20181212112958 48 45 3.0 6.0 0.00 0.00 0.00 62 1011.1
20181212112954 48 42 3.0 5.0 0.00 0.00 0.00 61 1011.0
20181212112655 48 45 3.0 6.0 0.00 0.00 0.00 62 1011.1
20181212112649 48 65 5.0 5.0 0.00 0.00 0.00 61 1011.1
20181212112353 48 65 5.0 5.0 0.00 0.00 0.00 61 1011.1
20181212112321 47 74 4.0 4.0 0.00 0.00 0.00 62 1011.1
20181212112051 47 74 4.0 4.0 0.00 0.00 0.00 62 1011.1
20181212112025 47 83 3.0 4.0 0.00 0.00 0.00 62 1011.2
20181212111751 47 83 3.0 4.0 0.00 0.00 0.00 62 1011.2
20181212111717 47 90 3.0 4.0 0.00 0.00 0.00 62 1011.2
20181212111450 47 90 3.0 4.0 0.00 0.00 0.00 62 1011.2
20181212111446 47 90 3.0 4.0 0.00 0.00 0.00 62 1011.2
20181212111147 47 90 3.0 4.0 0.00 0.00 0.00 62 1011.2
20181212110846 47 90 3.0 4.0 0.00 0.00 0.00 63 1011.4
20181212110800 47 92 3.0 4.0 0.00 0.00 0.00 62 1011.2
20181212110547 47 92 3.0 4.0 0.00 0.00 0.00 62 1011.2
20181212110245 47 90 3.0 4.0 0.00 0.00 0.00 62 1011.1
20181212110140 47 135 1.0 2.0 0.00 0.00 0.00 61 1011.1
20181212105944 47 135 1.0 2.0 0.00 0.00 0.00 61 1011.1
20181212105904 47 45 1.0 2.0 0.00 0.00 0.00 61 1011.3
20181212105642 47 45 1.0 2.0 0.00 0.00 0.00 61 1011.3
20181212105343 47 45 1.0 2.0 0.00 0.00 0.00 61 1011.2
20181212105309 47 45 1.0 1.0 0.00 0.00 0.00 61 1011.4
20181212105041 47 45 1.0 1.0 0.00 0.00 0.00 61 1011.4
20181212104936 47 0 1.0 1.0 0.00 0.00 0.00 61 1011.3
20181212104836 47 0 1.0 1.0 0.00 0.00 0.00 61 1011.3
20181212104741 47 0 1.0 1.0 0.00 0.00 0.00 61 1011.3
20181212104739 47 0 1.0 1.0 0.00 0.00 0.00 61 1011.3
20181212104708 47 0 0.0 1.0 0.00 0.00 0.00 61 1011.5
20181212104504 47 0 0.0 1.0 0.00 0.00 0.00 61 1011.4
20181212104437 47 0 0.0 1.0 0.00 0.00 0.00 61 1011.5
20181212104136 47 0 0.0 1.0 0.00 0.00 0.00 61 1011.4
20181212104125 47 0 0.0 1.0 0.00 0.00 0.00 60 1011.3
20181212103837 47 0 0.0 1.0 0.00 0.00 0.00 60 1011.3
20181212103758 47 0 1.0 1.0 0.00 0.00 0.00 60 1011.3
20181212103535 47 0 1.0 1.0 0.00 0.00 0.00 60 1011.3
20181212103307 47 0 0.0 1.0 0.00 0.00 0.00 59 1011.3
20181212102933 47 0 0.0 1.0 0.00 0.00 0.00 59 1011.3
20181212102632 47 225 0.0 2.0 0.00 0.00 0.00 60 1011.3
20181212102030 48 90 0.0 1.0 0.00 0.00 0.00 59 1011.3
20181212101640 48 90 0.0 1.0 0.00 0.00 0.00 59 1011.6
20181212101512 48 90 0.0 1.0 0.00 0.00 0.00 59 1011.6
20181212101428 48 90 0.0 1.0 0.00 0.00 0.00 59 1011.6
20181212101426 48 90 0.0 1.0 0.00 0.00 0.00 59 1011.6
20181212101127 48 90 0.0 1.0 0.00 0.00 0.00 58 1011.5
20181212100947 49 90 0.0 1.0 0.00 0.00 0.00 58 1011.3
20181212100825 49 90 0.0 1.0 0.00 0.00 0.00 58 1011.3
20181212100456 49 90 1.0 2.0 0.00 0.00 0.00 59 1011.4
20181212100223 49 90 1.0 2.0 0.00 0.00 0.00 59 1011.4
20181212095905 49 90 1.0 2.0 0.00 0.00 0.00 58 1011.6
20181212095615 49 90 1.0 2.0 0.00 0.00 0.00 58 1011.6
20181212095319 50 90 2.0 3.0 0.00 0.00 0.00 58 1011.5
20181212095315 50 90 1.0 1.0 0.00 0.00 0.00 58 1011.5
20181212095013 50 90 2.0 3.0 0.00 0.00 0.00 58 1011.5
20181212094905 50 90 2.0 4.0 0.00 0.00 0.00 58 1011.3
20181212094713 50 90 2.0 4.0 0.00 0.00 0.00 58 1011.3
20181212094711 50 90 2.0 4.0 0.00 0.00 0.00 58 1011.3
20181212094648 50 112 2.0 5.0 0.00 0.00 0.00 58 1011.4
20181212094410 50 112 2.0 5.0 0.00 0.00 0.00 58 1011.4
20181212094339 50 90 4.0 7.0 0.00 0.00 0.00 58 1011.3
20181212094111 50 90 4.0 7.0 0.00 0.00 0.00 58 1011.3
20181212093746 50 90 4.0 7.0 0.00 0.00 0.00 60 1011.5
20181212093509 50 90 4.0 7.0 0.00 0.00 0.00 60 1011.5
20181212093442 50 90 6.0 7.0 0.00 0.00 0.00 60 1011.5
20181212093206 50 90 6.0 7.0 0.00 0.00 0.00 60 1011.5
20181212093139 49 83 6.0 7.0 0.00 0.00 0.00 60 1011.5
20181212092907 49 83 6.0 7.0 0.00 0.00 0.00 60 1011.5
20181212092843 49 90 4.0 6.0 0.00 0.00 0.00 61 1011.5
20181212092607 49 90 4.0 6.0 0.00 0.00 0.00 61 1011.5
20181212092604 49 90 4.0 6.0 0.00 0.00 0.00 61 1011.5
20181212092500 49 83 5.0 6.0 0.00 0.00 0.00 61 1011.5
20181212092306 49 90 5.0 7.0 0.00 0.00 0.00 62 1011.6
20181212092003 49 90 5.0 7.0 0.00 0.00 0.00 62 1011.6
20181212091705 49 90 7.0 7.0 0.00 0.00 0.00 62 1011.6
20181212091703 49 81 5.0 7.0 0.00 0.00 0.00 63 1011.6
20181212091601 49 81 5.0 7.0 0.00 0.00 0.00 63 1011.6
20181212091401 49 81 5.0 7.0 0.00 0.00 0.00 63 1011.6
20181212091329 49 90 5.0 7.0 0.00 0.00 0.00 63 1011.5
20181212091058 49 90 5.0 7.0 0.00 0.00 0.00 63 1011.5
20181212090943 49 90 5.0 7.0 0.00 0.00 0.00 63 1011.6
20181212090758 49 90 5.0 7.0 0.00 0.00 0.00 63 1011.6
20181212090751 49 92 5.0 7.0 0.00 0.00 0.00 63 1011.5
20181212090548 49 92 5.0 7.0 0.00 0.00 0.00 63 1011.5
20181212090501 49 90 6.0 6.0 0.00 0.00 0.00 62 1011.6
20181212090456 49 92 5.0 7.0 0.00 0.00 0.00 63 1011.5
20181212090427 49 90 6.0 6.0 0.00 0.00 0.00 62 1011.6
20181212090319 49 90 6.0 6.0 0.00 0.00 0.00 62 1011.6
20181212090156 49 90 6.0 6.0 0.00 0.00 0.00 62 1011.6
20181212085805 49 90 5.0 6.0 0.00 0.00 0.00 61 1011.5
20181212085706 49 90 5.0 6.0 0.00 0.00 0.00 61 1011.5
20181212085554 49 90 5.0 6.0 0.00 0.00 0.00 61 1011.5
20181212085505 50 90 5.0 7.0 0.00 0.00 0.00 61 1011.6
20181212085253 50 90 5.0 7.0 0.00 0.00 0.00 61 1011.6
20181212085242 50 90 4.0 7.0 0.00 0.00 0.00 59 1011.5
20181212085122 50 90 4.0 7.0 0.00 0.00 0.00 59 1011.5
20181212084952 50 90 4.0 7.0 0.00 0.00 0.00 59 1011.5
20181212084923 51 90 5.0 12.0 0.00 0.00 0.00 59 1011.6
20181212084745 51 90 5.0 12.0 0.00 0.00 0.00 59 1011.6
20181212084651 51 90 5.0 12.0 0.00 0.00 0.00 59 1011.6
20181212084649 51 90 5.0 12.0 0.00 0.00 0.00 59 1011.6
20181212084640 51 90 5.0 8.0 0.00 0.00 0.00 57 1011.4
20181212084526 51 90 5.0 8.0 0.00 0.00 0.00 57 1011.4
20181212084350 51 90 5.0 8.0 0.00 0.00 0.00 57 1011.4
20181212083653 51 83 5.0 8.0 0.00 0.00 0.00 57 1011.6
20181212083619 51 83 5.0 8.0 0.00 0.00 0.00 57 1011.6
20181212083446 51 83 5.0 8.0 0.00 0.00 0.00 57 1011.6
20181212083336 51 90 8.0 8.0 0.00 0.00 0.00 57 1011.6
20181212083146 51 90 8.0 8.0 0.00 0.00 0.00 57 1011.6
20181212083134 51 83 6.0 8.0 0.00 0.00 0.00 56 1011.7
20181212083014 51 83 6.0 8.0 0.00 0.00 0.00 56 1011.7
20181212082844 51 83 6.0 8.0 0.00 0.00 0.00 56 1011.7
20181212082708 51 90 6.0 6.0 0.00 0.00 0.00 55 1011.7
20181212082544 51 90 6.0 6.0 0.00 0.00 0.00 55 1011.7
20181212082542 51 90 6.0 6.0 0.00 0.00 0.00 55 1011.7
20181212082241 51 99 3.0 4.0 0.00 0.00 0.00 54 1011.7
20181212082143 51 90 3.0 3.0 0.00 0.00 0.00 54 1011.7
20181212081941 51 90 3.0 3.0 0.00 0.00 0.00 54 1011.7
20181212081640 51 69 2.0 3.0 0.00 0.00 0.00 54 1011.8
20181212081359 51 27 2.0 4.0 0.00 0.00 0.00 55 1011.7
20181212081038 51 27 2.0 4.0 0.00 0.00 0.00 55 1011.7
20181212080639 51 69 3.0 4.0 0.00 0.00 0.00 55 1011.7
20181212080436 51 69 3.0 4.0 0.00 0.00 0.00 55 1011.7
20181212080135 51 90 2.0 2.0 0.00 0.00 0.00 54 1011.8
20181212080114 51 135 1.0 4.0 0.00 0.00 0.00 53 1011.7
20181212075832 51 135 1.0 4.0 0.00 0.00 0.00 53 1011.7
20181212075506 51 135 1.0 4.0 0.00 0.00 0.00 52 1011.7
20181212075229 51 135 1.0 4.0 0.00 0.00 0.00 52 1011.7
20181212075147 51 0 3.0 3.0 0.00 0.00 0.00 53 1011.8
20181212074930 51 0 3.0 3.0 0.00 0.00 0.00 53 1011.8
20181212074906 51 22 1.0 1.0 0.00 0.00 0.00 53 1011.8
20181212074755 51 22 1.0 1.0 0.00 0.00 0.00 53 1011.8
20181212074629 51 22 1.0 1.0 0.00 0.00 0.00 53 1011.8
20181212074356 51 90 1.0 2.0 0.00 0.00 0.00 53 1011.9
20181212074326 51 45 0.0 2.0 0.00 0.00 0.00 53 1011.8
20181212073957 51 90 1.0 2.0 0.00 0.00 0.00 53 1011.9
20181212073806 51 90 1.0 2.0 0.00 0.00 0.00 53 1011.9
20181212073724 51 90 1.0 2.0 0.00 0.00 0.00 53 1011.9
20181212073425 51 90 2.0 2.0 0.00 0.00 0.00 53 1011.8
20181212073339 52 135 1.0 1.0 0.00 0.00 0.00 52 1011.8
20181212073123 52 135 1.0 1.0 0.00 0.00 0.00 52 1011.8
20181212073120 52 135 0.0 1.0 0.00 0.00 0.00 53 1011.8
20181212073044 52 135 0.0 1.0 0.00 0.00 0.00 53 1011.8
20181212072822 52 135 0.0 1.0 0.00 0.00 0.00 53 1011.8
20181212072816 52 135 0.0 2.0 0.00 0.00 0.00 53 1011.7
20181212072521 52 135 0.0 2.0 0.00 0.00 0.00 53 1011.7
20181212072444 52 135 0.0 1.0 0.00 0.00 0.00 53 1011.7
20181212072221 52 135 0.0 1.0 0.00 0.00 0.00 53 1011.7
20181212072203 52 135 1.0 2.0 0.00 0.00 0.00 53 1011.6
20181212071941 52 45 1.0 4.0 0.00 0.00 0.00 53 1011.5
20181212071919 52 135 1.0 2.0 0.00 0.00 0.00 53 1011.6
20181212071849 52 45 1.0 4.0 0.00 0.00 0.00 53 1011.5
20181212071737 52 67 3.0 4.0 0.00 0.00 0.00 53 1011.7
20181212071616 52 45 1.0 4.0 0.00 0.00 0.00 53 1011.5
20181212071422 52 67 3.0 4.0 0.00 0.00 0.00 53 1011.7
20181212071315 52 67 3.0 4.0 0.00 0.00 0.00 53 1011.7
20181212071248 51 45 0.0 3.0 0.00 0.00 0.00 53 1011.7
20181212071242 52 65 3.0 5.0 0.00 0.00 0.00 53 1011.6
20181212071014 52 65 3.0 5.0 0.00 0.00 0.00 53 1011.6
20181212070905 51 112 0.0 3.0 0.00 0.00 0.00 53 1011.7
20181212070713 51 112 0.0 3.0 0.00 0.00 0.00 53 1011.7
20181212070413 51 45 1.0 3.0 0.00 0.00 0.00 54 1011.8
20181212070112 51 0 0.0 1.0 0.00 0.00 0.00 53 1011.8
20181212065816 51 135 1.0 1.0 0.00 0.00 0.00 54 1011.8
20181212065508 51 135 1.0 1.0 0.00 0.00 0.00 54 1011.8
20181212065145 52 90 1.0 2.0 0.00 0.00 0.00 54 1011.8
20181212064908 52 90 1.0 2.0 0.00 0.00 0.00 54 1011.8
20181212064905 51 45 0.0 3.0 0.00 0.00 0.00 53 1011.7
20181212064635 52 45 1.0 2.0 0.00 0.00 0.00 53 1011.7
20181212064605 51 45 0.0 3.0 0.00 0.00 0.00 53 1011.7
20181212064428 52 45 1.0 2.0 0.00 0.00 0.00 53 1011.7
20181212064307 52 45 1.0 2.0 0.00 0.00 0.00 53 1011.7
20181212063939 52 90 1.0 1.0 0.00 0.00 0.00 53 1011.7
20181212063821 52 90 1.0 1.0 0.00 0.00 0.00 53 1011.7
20181212063702 52 90 1.0 1.0 0.00 0.00 0.00 53 1011.7
20181212063618 52 157 0.0 1.0 0.00 0.00 0.00 53 1011.7
20181212063402 52 157 0.0 1.0 0.00 0.00 0.00 53 1011.7
20181212063226 52 157 0.0 1.0 0.00 0.00 0.00 52 1011.7
20181212063131 52 157 0.0 1.0 0.00 0.00 0.00 52 1011.7
20181212063100 52 157 0.0 1.0 0.00 0.00 0.00 52 1011.7
20181212063050 52 270 0.0 2.0 0.00 0.00 0.00 53 1011.7
20181212062937 52 270 0.0 2.0 0.00 0.00 0.00 53 1011.7
20181212062758 52 270 0.0 2.0 0.00 0.00 0.00 53 1011.7
20181212062738 53 270 1.0 2.0 0.00 0.00 0.00 53 1011.7
20181212062651 53 270 1.0 2.0 0.00 0.00 0.00 53 1011.7
20181212062501 53 225 0.0 1.0 0.00 0.00 0.00 53 1012.0
20181212062457 53 270 1.0 2.0 0.00 0.00 0.00 53 1011.7
20181212062158 53 225 0.0 1.0 0.00 0.00 0.00 53 1012.0
20181212061856 53 270 1.0 1.0 0.00 0.00 0.00 52 1012.1
20181212061853 53 270 0.0 1.0 0.00 0.00 0.00 53 1012.1
20181212061558 54 225 0.0 1.0 0.00 0.00 0.00 53 1011.8
20181212061554 53 270 0.0 1.0 0.00 0.00 0.00 53 1012.1
20181212061315 54 229 1.0 2.0 0.00 0.00 0.00 53 1012.0
20181212061255 54 225 0.0 1.0 0.00 0.00 0.00 53 1011.8
20181212060952 54 229 1.0 2.0 0.00 0.00 0.00 53 1012.0
20181212060905 54 270 2.0 4.0 0.00 0.00 0.00 53 1011.9
20181212060653 54 270 2.0 4.0 0.00 0.00 0.00 53 1011.9
20181212060538 54 270 1.0 4.0 0.00 0.00 0.00 53 1011.9
20181212060350 54 270 1.0 4.0 0.00 0.00 0.00 53 1011.9
20181212060316 54 270 1.0 4.0 0.00 0.00 0.00 53 1012.0
20181212060132 54 270 1.0 4.0 0.00 0.00 0.00 53 1012.0
20181212060111 54 272 3.0 5.0 0.00 0.00 0.00 53 1011.9
20181212060048 54 270 1.0 4.0 0.00 0.00 0.00 53 1012.0
20181212055747 54 272 3.0 5.0 0.00 0.00 0.00 53 1011.9
20181212055728 54 299 4.0 5.0 0.00 0.00 0.00 54 1011.6
20181212055449 54 270 5.0 6.0 0.00 0.00 0.00 54 1011.7
20181212055348 54 270 5.0 6.0 0.00 0.00 0.00 54 1011.7
20181212055147 54 270 5.0 6.0 0.00 0.00 0.00 54 1011.7
20181212055114 54 306 6.0 6.0 0.00 0.00 0.00 55 1011.7
20181212054956 54 306 6.0 6.0 0.00 0.00 0.00 55 1011.7
20181212054844 54 306 6.0 6.0 0.00 0.00 0.00 55 1011.7
20181212054726 54 270 4.0 6.0 0.00 0.00 0.00 54 1011.7
20181212054543 54 270 4.0 6.0 0.00 0.00 0.00 54 1011.7
20181212054442 54 270 5.0 6.0 0.00 0.00 0.00 53 1011.6
20181212054329 54 270 5.0 6.0 0.00 0.00 0.00 53 1011.6
20181212054242 54 270 5.0 6.0 0.00 0.00 0.00 53 1011.6
20181212053857 55 270 2.0 4.0 0.00 0.00 0.00 52 1011.5
20181212053640 55 270 2.0 4.0 0.00 0.00 0.00 52 1011.5
20181212053613 55 270 1.0 3.0 0.00 0.00 0.00 51 1011.4
20181212053340 55 270 1.0 3.0 0.00 0.00 0.00 51 1011.4
20181212053111 55 285 3.0 3.0 0.00 0.00 0.00 50 1011.5
20181212052736 55 285 3.0 3.0 0.00 0.00 0.00 50 1011.5
20181212052437 55 315 2.0 3.0 0.00 0.00 0.00 50 1011.5
20181212052345 55 132 2.0 6.0 0.00 0.00 0.00 49 1011.4
20181212052136 55 132 2.0 6.0 0.00 0.00 0.00 49 1011.4
20181212052044 55 92 2.0 3.0 0.00 0.00 0.00 50 1011.4
20181212051959 55 92 2.0 3.0 0.00 0.00 0.00 50 1011.4
20181212051841 55 90 2.0 3.0 0.00 0.00 0.00 50 1011.4
20181212051835 55 92 2.0 3.0 0.00 0.00 0.00 50 1011.4
20181212051535 55 90 2.0 3.0 0.00 0.00 0.00 50 1011.4
20181212051214 55 0 0.0 1.0 0.00 0.00 0.00 49 1011.5
20181212050927 55 0 0.0 1.0 0.00 0.00 0.00 49 1011.5
20181212050753 56 225 0.0 3.0 0.00 0.00 0.00 50 1011.4
20181212050626 56 225 0.0 3.0 0.00 0.00 0.00 50 1011.4
20181212050443 56 45 1.0 3.0 0.00 0.00 0.00 50 1011.4
20181212050324 56 45 1.0 3.0 0.00 0.00 0.00 50 1011.4
20181212050139 56 324 1.0 3.0 0.00 0.00 0.00 50 1011.5
20181212050021 56 324 1.0 3.0 0.00 0.00 0.00 50 1011.5
20181212045557 56 112 2.0 2.0 0.00 0.00 0.00 52 1011.5
20181212045507 56 112 2.0 2.0 0.00 0.00 0.00 52 1011.5
20181212045421 56 112 2.0 2.0 0.00 0.00 0.00 52 1011.5
20181212045411 57 157 1.0 1.0 0.00 0.00 0.00 52 1011.4
20181212045311 57 157 1.0 1.0 0.00 0.00 0.00 52 1011.4
20181212045120 57 157 1.0 1.0 0.00 0.00 0.00 52 1011.4
20181212045023 57 157 1.0 3.0 0.00 0.00 0.00 52 1011.5
20181212044817 57 157 1.0 3.0 0.00 0.00 0.00 52 1011.5
20181212044744 57 270 2.0 5.0 0.00 0.00 0.00 52 1011.6
20181212044516 57 270 2.0 5.0 0.00 0.00 0.00 52 1011.6
20181212044431 57 270 5.0 5.0 0.00 0.00 0.00 51 1011.5
20181212044329 57 270 5.0 5.0 0.00 0.00 0.00 51 1011.5
20181212044215 57 270 5.0 5.0 0.00 0.00 0.00 51 1011.5
20181212044143 57 270 7.0 8.0 0.00 0.00 0.00 50 1011.7
20181212043915 57 270 7.0 8.0 0.00 0.00 0.00 50 1011.7
20181212043614 58 274 5.0 8.0 0.00 0.00 0.00 49 1011.6
20181212043535 58 270 6.0 7.0 0.00 0.00 0.00 47 1011.5
20181212043450 58 270 6.0 7.0 0.00 0.00 0.00 47 1011.5
20181212043313 58 270 6.0 7.0 0.00 0.00 0.00 47 1011.5
20181212043122 59 270 3.0 4.0 0.00 0.00 0.00 46 1011.5
20181212043010 59 270 3.0 4.0 0.00 0.00 0.00 46 1011.5
20181212042914 59 315 3.0 3.0 0.00 0.00 0.00 46 1011.4
20181212042709 59 315 3.0 3.0 0.00 0.00 0.00 46 1011.4
20181212042616 59 225 1.0 3.0 0.00 0.00 0.00 45 1011.4
20181212042408 59 225 1.0 3.0 0.00 0.00 0.00 45 1011.4
20181212042014 60 270 3.0 4.0 0.00 0.00 0.00 44 1011.4
20181212041808 60 270 3.0 4.0 0.00 0.00 0.00 44 1011.4
20181212041353 60 225 0.0 6.0 0.00 0.00 0.00 42 1011.3
20181212041204 60 225 0.0 6.0 0.00 0.00 0.00 42 1011.3
20181212040905 60 357 1.0 6.0 0.00 0.00 0.00 42 1011.3
20181212040759 60 90 4.0 4.0 0.00 0.00 0.00 42 1011.3
20181212040604 60 90 4.0 4.0 0.00 0.00 0.00 42 1011.3
20181212040302 60 135 1.0 4.0 0.00 0.00 0.00 42 1011.2
20181212040226 60 38 4.0 4.0 0.00 0.00 0.00 43 1011.1
20181212040132 60 38 4.0 4.0 0.00 0.00 0.00 43 1011.1
20181212040002 60 45 1.0 5.0 0.00 0.00 0.00 43 1011.2
20181212035959 60 38 4.0 4.0 0.00 0.00 0.00 43 1011.1
20181212035700 60 45 1.0 5.0 0.00 0.00 0.00 43 1011.2
20181212035637 60 337 4.0 5.0 0.00 0.00 0.00 43 1011.1
20181212035601 60 337 4.0 5.0 0.00 0.00 0.00 43 1011.1
20181212035359 60 337 4.0 5.0 0.00 0.00 0.00 43 1011.1
20181212035316 59 148 2.0 4.0 0.00 0.00 0.00 44 1011.1
20181212035058 59 148 2.0 4.0 0.00 0.00 0.00 44 1011.1
20181212035049 59 90 3.0 9.0 0.00 0.00 0.00 44 1011.0
20181212034910 59 90 3.0 9.0 0.00 0.00 0.00 44 1011.0
20181212034757 59 90 3.0 9.0 0.00 0.00 0.00 44 1011.0
20181212034604 58 272 9.0 9.0 0.00 0.00 0.00 44 1010.8
20181212034456 58 272 9.0 9.0 0.00 0.00 0.00 44 1010.8
20181212034344 58 270 4.0 4.0 0.00 0.00 0.00 44 1010.9
20181212034252 58 270 4.0 4.0 0.00 0.00 0.00 44 1010.9
20181212034155 58 270 4.0 4.0 0.00 0.00 0.00 44 1010.9
20181212033854 59 315 0.0 1.0 0.00 0.00 0.00 46 1011.0
20181212033435 59 270 4.0 4.0 0.00 0.00 0.00 45 1010.8
20181212033342 59 270 4.0 4.0 0.00 0.00 0.00 45 1010.8
20181212033249 59 270 4.0 4.0 0.00 0.00 0.00 45 1010.8
20181212033145 59 270 2.0 4.0 0.00 0.00 0.00 44 1010.9
20181212032950 59 270 2.0 4.0 0.00 0.00 0.00 44 1010.9
20181212032909 60 234 1.0 4.0 0.00 0.00 0.00 42 1010.8
20181212032647 60 234 1.0 4.0 0.00 0.00 0.00 42 1010.8
20181212032253 60 270 5.0 6.0 0.00 0.00 0.00 42 1010.9
20181212032045 60 270 5.0 6.0 0.00 0.00 0.00 42 1010.9
20181212031956 60 270 2.0 2.0 0.00 0.00 0.00 41 1010.7
20181212031806 60 270 1.0 1.0 0.00 0.00 0.00 40 1010.7
20181212031744 60 270 2.0 2.0 0.00 0.00 0.00 41 1010.7
20181212031700 60 270 1.0 1.0 0.00 0.00 0.00 40 1010.7
20181212031443 60 270 1.0 1.0 0.00 0.00 0.00 40 1010.7
20181212031415 60 270 0.0 1.0 0.00 0.00 0.00 41 1010.8
20181212031142 60 270 0.0 1.0 0.00 0.00 0.00 41 1010.8
20181212031118 60 270 1.0 2.0 0.00 0.00 0.00 41 1010.5
20181212030844 60 270 1.0 2.0 0.00 0.00 0.00 41 1010.5
20181212030219 61 45 2.0 2.0 0.00 0.00 0.00 40 1010.7
20181212025934 61 45 2.0 2.0 0.00 0.00 0.00 40 1010.7
20181212025917 61 225 1.0 4.0 0.00 0.00 0.00 40 1010.5
20181212025631 61 225 1.0 4.0 0.00 0.00 0.00 40 1010.5
20181212025610 60 81 1.0 6.0 0.00 0.00 0.00 41 1010.6
20181212025332 60 81 1.0 6.0 0.00 0.00 0.00 41 1010.6
20181212025326 60 83 5.0 6.0 0.00 0.00 0.00 41 1010.6
20181212025029 60 83 5.0 6.0 0.00 0.00 0.00 41 1010.6
20181212025004 60 55 2.0 5.0 0.00 0.00 0.00 42 1010.7
20181212024728 60 55 2.0 5.0 0.00 0.00 0.00 42 1010.7
20181212024659 60 45 1.0 3.0 0.00 0.00 0.00 41 1010.5
20181212024427 60 45 1.0 3.0 0.00 0.00 0.00 41 1010.5
20181212024402 60 110 3.0 3.0 0.00 0.00 0.00 41 1010.5
20181212024126 60 110 3.0 3.0 0.00 0.00 0.00 41 1010.5
20181212024055 60 315 2.0 2.0 0.00 0.00 0.00 41 1010.3
20181212023826 60 315 2.0 2.0 0.00 0.00 0.00 41 1010.3
20181212023222 60 272 2.0 2.0 0.00 0.00 0.00 41 1010.4
20181212023119 60 270 0.0 2.0 0.00 0.00 0.00 41 1010.5
20181212022921 60 270 0.0 2.0 0.00 0.00 0.00 41 1010.5
20181212022838 60 270 1.0 3.0 0.00 0.00 0.00 41 1010.4
20181212022622 60 270 1.0 3.0 0.00 0.00 0.00 41 1010.4
20181212022236 60 225 0.0 2.0 0.00 0.00 0.00 40 1010.4
20181212022018 60 225 0.0 2.0 0.00 0.00 0.00 40 1010.4
20181212021956 60 234 1.0 2.0 0.00 0.00 0.00 40 1010.3
20181212021719 60 234 1.0 2.0 0.00 0.00 0.00 40 1010.3
20181212021625 60 315 1.0 3.0 0.00 0.00 0.00 41 1010.4
20181212021416 60 315 1.0 3.0 0.00 0.00 0.00 41 1010.4
20181212021115 60 315 2.0 3.0 0.00 0.00 0.00 41 1010.4
20181212021035 60 261 2.0 3.0 0.00 0.00 0.00 40 1010.3
20181212020814 60 261 2.0 3.0 0.00 0.00 0.00 40 1010.3
20181212020647 60 270 2.0 2.0 0.00 0.00 0.00 40 1010.2
20181212020514 60 270 2.0 2.0 0.00 0.00 0.00 40 1010.2
20181212020359 60 270 0.0 2.0 0.00 0.00 0.00 40 1010.3
20181212020211 60 270 0.0 2.0 0.00 0.00 0.00 40 1010.3
20181212015913 61 270 2.0 2.0 0.00 0.00 0.00 40 1010.3
20181212015752 61 225 0.0 2.0 0.00 0.00 0.00 40 1010.3
20181212015611 61 225 0.0 2.0 0.00 0.00 0.00 40 1010.3
20181212015453 61 225 0.0 5.0 0.00 0.00 0.00 40 1010.1
20181212015308 61 225 0.0 5.0 0.00 0.00 0.00 40 1010.1
20181212015211 61 0 2.0 5.0 0.00 0.00 0.00 40 1010.0
20181212015009 61 0 2.0 5.0 0.00 0.00 0.00 40 1010.0
20181212014904 61 150 1.0 5.0 0.00 0.00 0.00 40 1010.0
20181212014708 61 150 1.0 5.0 0.00 0.00 0.00 40 1010.0
20181212014635 61 189 1.0 5.0 0.00 0.00 0.00 39 1010.0
20181212014405 61 189 1.0 5.0 0.00 0.00 0.00 39 1010.0
20181212014327 61 180 3.0 5.0 0.00 0.00 0.00 39 1010.2
20181212014106 61 180 3.0 5.0 0.00 0.00 0.00 39 1010.2
20181212013956 61 180 2.0 3.0 0.00 0.00 0.00 39 1010.2
20181212013803 61 180 2.0 3.0 0.00 0.00 0.00 39 1010.2
20181212013423 62 180 4.0 4.0 0.00 0.00 0.00 38 1009.9
20181212013330 62 180 4.0 4.0 0.00 0.00 0.00 38 1009.9
20181212013200 62 180 4.0 4.0 0.00 0.00 0.00 38 1009.9
20181212013102 62 0 0.0 1.0 0.00 0.00 0.00 37 1010.0
20181212013007 62 0 0.0 1.0 0.00 0.00 0.00 37 1010.0
20181212012859 62 0 0.0 1.0 0.00 0.00 0.00 37 1010.0
20181212012600 62 0 0.0 4.0 0.00 0.00 0.00 38 1010.1
20181212012456 62 177 3.0 3.0 0.00 0.00 0.00 38 1010.0
20181212012259 62 177 3.0 3.0 0.00 0.00 0.00 38 1010.0
20181212011829 63 90 2.0 6.0 0.00 0.00 0.00 37 1009.9
20181212011656 63 90 2.0 6.0 0.00 0.00 0.00 37 1009.9
20181212011608 63 141 5.0 6.0 0.00 0.00 0.00 37 1009.7
20181212011358 63 141 5.0 6.0 0.00 0.00 0.00 37 1009.7
20181212011233 63 45 5.0 5.0 0.00 0.00 0.00 37 1009.7
20181212011149 63 45 5.0 5.0 0.00 0.00 0.00 37 1009.7
20181212011054 63 45 5.0 5.0 0.00 0.00 0.00 37 1009.7
20181212010753 63 135 2.0 4.0 0.00 0.00 0.00 37 1009.8
20181212010611 63 225 2.0 3.0 0.00 0.00 0.00 37 1009.8
20181212010452 63 225 2.0 3.0 0.00 0.00 0.00 37 1009.8
20181212010359 64 36 3.0 8.0 0.00 0.00 0.00 37 1010.0
20181212010242 64 36 3.0 8.0 0.00 0.00 0.00 37 1010.0
20181212010151 64 36 3.0 8.0 0.00 0.00 0.00 37 1010.0
20181212010103 64 48 2.0 4.0 0.00 0.00 0.00 37 1009.7
20181212005938 64 48 2.0 4.0 0.00 0.00 0.00 37 1009.7
20181212005850 64 48 2.0 4.0 0.00 0.00 0.00 37 1009.7
20181212005727 64 25 2.0 7.0 0.00 0.00 0.00 37 1009.6
20181212005547 64 25 2.0 7.0 0.00 0.00 0.00 37 1009.6
20181212005248 64 47 5.0 7.0 0.00 0.00 0.00 36 1009.4
20181212005038 64 299 1.0 9.0 0.00 0.00 0.00 36 1009.4
20181212004945 64 299 1.0 9.0 0.00 0.00 0.00 36 1009.4
20181212004733 64 27 9.0 9.0 0.00 0.00 0.00 36 1009.5
20181212004646 64 27 9.0 9.0 0.00 0.00 0.00 36 1009.5
20181212004535 65 24 2.0 7.0 0.00 0.00 0.00 36 1009.5
20181212004344 65 24 2.0 7.0 0.00 0.00 0.00 36 1009.5
20181212004143 65 67 1.0 7.0 0.00 0.00 0.00 36 1009.3
20181212004041 65 67 1.0 7.0 0.00 0.00 0.00 36 1009.3
20181212003835 65 42 4.0 7.0 0.00 0.00 0.00 36 1009.4
20181212003742 65 42 4.0 7.0 0.00 0.00 0.00 36 1009.4
20181212003441 65 74 4.0 5.0 0.00 0.00 0.00 36 1009.3
20181212003349 65 355 7.0 8.0 0.00 0.00 0.00 35 1009.5
20181212003226 65 355 7.0 8.0 0.00 0.00 0.00 35 1009.5
20181212003140 65 355 7.0 8.0 0.00 0.00 0.00 35 1009.5
20181212003014 65 24 4.0 7.0 0.00 0.00 0.00 36 1009.6
20181212002837 65 24 4.0 7.0 0.00 0.00 0.00 36 1009.6
20181212002718 66 45 2.0 10.0 0.00 0.00 0.00 35 1009.7
20181212002620 66 45 2.0 10.0 0.00 0.00 0.00 35 1009.7
20181212002536 66 45 2.0 10.0 0.00 0.00 0.00 35 1009.7
20181212001934 66 53 4.0 10.0 0.00 0.00 0.00 35 1009.7
20181212001837 66 45 8.0 10.0 0.00 0.00 0.00 35 1009.6
20181212001634 66 45 8.0 10.0 0.00 0.00 0.00 35 1009.6
20181212001445 66 335 3.0 10.0 0.00 0.00 0.00 35 1009.6
20181212001332 66 335 3.0 10.0 0.00 0.00 0.00 35 1009.6
20181212001223 66 81 5.0 12.0 0.00 0.00 0.00 35 1009.6
20181212001134 66 81 5.0 12.0 0.00 0.00 0.00 35 1009.6
20181212001030 66 81 5.0 12.0 0.00 0.00 0.00 35 1009.6
20181212000729 66 20 5.0 9.0 0.00 0.00 0.00 35 1009.6
20181212000623 67 47 3.0 8.0 0.00 0.00 0.00 35 1009.7
20181212000428 67 47 3.0 8.0 0.00 0.00 0.00 35 1009.7
20181212000345 67 126 3.0 8.0 0.00 0.00 0.00 35 1009.6
20181212000129 67 126 3.0 8.0 0.00 0.00 0.00 35 1009.6
20181212000054 67 83 1.0 9.0 0.00 0.00 0.00 36 1009.4
20181211235828 67 83 1.0 9.0 0.00 0.00 0.00 36 1009.4
20181211235527 67 81 7.0 8.0 0.00 0.00 0.00 34 1009.2
20181211235412 67 15 6.0 12.0 0.00 0.00 0.00 35 1009.4
20181211235224 67 15 6.0 12.0 0.00 0.00 0.00 35 1009.4
20181211235133 67 5 4.0 13.0 0.00 0.00 0.00 34 1009.5
20181211234925 67 5 4.0 13.0 0.00 0.00 0.00 34 1009.5
20181211234923 67 5 4.0 13.0 0.00 0.00 0.00 34 1009.5
20181211234811 67 94 12.0 13.0 0.00 0.00 0.00 34 1009.4
20181211234623 67 94 12.0 13.0 0.00 0.00 0.00 34 1009.4
20181211234514 67 9 12.0 12.0 0.00 0.00 0.00 34 1009.4
20181211234427 67 9 12.0 12.0 0.00 0.00 0.00 34 1009.4
20181211234323 67 9 12.0 12.0 0.00 0.00 0.00 34 1009.4
20181211234320 67 9 12.0 12.0 0.00 0.00 0.00 34 1009.4
20181211234149 68 59 5.0 15.0 0.00 0.00 0.00 35 1009.4
20181211234019 68 59 5.0 15.0 0.00 0.00 0.00 35 1009.4
20181211233834 68 45 8.0 12.0 0.00 0.00 0.00 34 1009.3
20181211233720 68 45 8.0 12.0 0.00 0.00 0.00 34 1009.3
20181211233625 68 27 11.0 12.0 0.00 0.00 0.00 34 1009.4
20181211233419 68 27 11.0 12.0 0.00 0.00 0.00 34 1009.4
20181211233305 68 74 9.0 13.0 0.00 0.00 0.00 34 1009.5
20181211233118 68 74 9.0 13.0 0.00 0.00 0.00 34 1009.5
20181211233116 68 74 9.0 13.0 0.00 0.00 0.00 34 1009.5
20181211232815 68 27 8.0 13.0 0.00 0.00 0.00 34 1009.5
20181211232400 69 50 5.0 14.0 0.00 0.00 0.00 33 1009.5
20181211232055 69 50 5.0 14.0 0.00 0.00 0.00 33 1009.5
20181211231913 69 50 5.0 14.0 0.00 0.00 0.00 33 1009.5
20181211231830 69 29 8.0 14.0 0.00 0.00 0.00 33 1009.3
20181211231752 69 29 8.0 14.0 0.00 0.00 0.00 33 1009.3
20181211231649 69 29 8.0 14.0 0.00 0.00 0.00 33 1009.3
20181211231611 69 29 8.0 14.0 0.00 0.00 0.00 33 1009.3
20181211231453 69 61 5.0 12.0 0.00 0.00 0.00 33 1009.5
20181211231311 69 61 5.0 12.0 0.00 0.00 0.00 33 1009.5
20181211230406 70 35 9.0 15.0 0.00 0.00 0.00 32 1009.2
20181211230246 70 54 7.0 13.0 0.00 0.00 0.00 32 1009.4
20181211230107 70 54 7.0 13.0 0.00 0.00 0.00 32 1009.4
20181211225950 71 58 7.0 18.0 0.00 0.00 0.00 32 1009.3
20181211225804 71 58 7.0 18.0 0.00 0.00 0.00 32 1009.3
20181211225714 71 24 12.0 18.0 0.00 0.00 0.00 32 1009.4
20181211225505 71 24 12.0 18.0 0.00 0.00 0.00 32 1009.4
20181211225314 71 38 6.0 13.0 0.00 0.00 0.00 32 1009.3
20181211225202 71 38 6.0 13.0 0.00 0.00 0.00 32 1009.3
20181211225036 71 92 7.0 11.0 0.00 0.00 0.00 32 1009.3
20181211224904 71 92 7.0 11.0 0.00 0.00 0.00 32 1009.3
20181211224902 71 92 7.0 11.0 0.00 0.00 0.00 32 1009.3
20181211224738 71 7 4.0 11.0 0.00 0.00 0.00 31 1009.4
20181211224601 71 7 4.0 11.0 0.00 0.00 0.00 31 1009.4
20181211224450 71 42 7.0 12.0 0.00 0.00 0.00 31 1009.3
20181211224301 71 42 7.0 12.0 0.00 0.00 0.00 31 1009.3
20181211223959 71 22 10.0 16.0 0.00 0.00 0.00 31 1009.3
20181211223658 71 81 16.0 16.0 0.00 0.00 0.00 31 1009.2
20181211223357 72 51 10.0 14.0 0.00 0.00 0.00 31 1009.3
20181211223057 72 40 8.0 17.0 0.00 0.00 0.00 31 1009.5
20181211223037 72 22 14.0 15.0 0.00 0.00 0.00 31 1009.3
20181211222929 72 22 14.0 15.0 0.00 0.00 0.00 31 1009.3
20181211222753 72 22 14.0 15.0 0.00 0.00 0.00 31 1009.3
20181211222618 72 36 9.0 12.0 0.00 0.00 0.00 31 1009.6
20181211222454 72 36 9.0 12.0 0.00 0.00 0.00 31 1009.6
20181211222153 72 31 9.0 18.0 0.00 0.00 0.00 31 1009.6
20181211222040 72 36 13.0 14.0 0.00 0.00 0.00 30 1009.4
20181211221850 72 36 13.0 14.0 0.00 0.00 0.00 30 1009.4
20181211220947 72 33 8.0 12.0 0.00 0.00 0.00 31 1009.5
20181211220907 72 15 8.0 11.0 0.00 0.00 0.00 31 1009.5
20181211220645 72 15 8.0 11.0 0.00 0.00 0.00 31 1009.5
20181211220346 72 78 6.0 9.0 0.00 0.00 0.00 31 1009.4
20181211220251 72 69 12.0 16.0 0.00 0.00 0.00 31 1009.4
20181211220043 72 69 12.0 16.0 0.00 0.00 0.00 31 1009.4
20181211215930 72 78 8.0 11.0 0.00 0.00 0.00 31 1009.6
20181211215744 72 78 8.0 11.0 0.00 0.00 0.00 31 1009.6
20181211215658 72 25 4.0 15.0 0.00 0.00 0.00 31 1009.5
20181211215441 72 25 4.0 15.0 0.00 0.00 0.00 31 1009.5
20181211215140 72 42 9.0 12.0 0.00 0.00 0.00 31 1009.5
20181211214539 72 67 6.0 11.0 0.00 0.00 0.00 32 1009.6
20181211214239 72 45 7.0 10.0 0.00 0.00 0.00 31 1009.5
20181211214122 72 340 7.0 17.0 0.00 0.00 0.00 31 1009.5
20181211213937 72 340 7.0 17.0 0.00 0.00 0.00 31 1009.5
20181211213634 72 9 8.0 15.0 0.00 0.00 0.00 31 1009.6
20181211213602 72 13 11.0 15.0 0.00 0.00 0.00 31 1009.5
20181211213335 72 13 11.0 15.0 0.00 0.00 0.00 31 1009.5
20181211213333 72 13 11.0 15.0 0.00 0.00 0.00 31 1009.5
20181211213313 72 20 9.0 15.0 0.00 0.00 0.00 31 1009.6
20181211213122 72 20 9.0 15.0 0.00 0.00 0.00 31 1009.6
20181211213032 72 20 9.0 15.0 0.00 0.00 0.00 31 1009.6
20181211213021 72 52 8.0 17.0 0.00 0.00 0.00 31 1009.6
20181211212731 72 52 8.0 17.0 0.00 0.00 0.00 31 1009.6
20181211212612 72 22 11.0 13.0 0.00 0.00 0.00 31 1009.7
20181211212431 72 22 11.0 13.0 0.00 0.00 0.00 31 1009.7
20181211211620 73 9 10.0 13.0 0.00 0.00 0.00 31 1009.5
20181211211528 73 9 10.0 13.0 0.00 0.00 0.00 31 1009.5
20181211211225 73 9 5.0 12.0 0.00 0.00 0.00 32 1009.7
20181211211215 72 63 8.0 14.0 0.00 0.00 0.00 32 1009.7
20181211210924 72 63 8.0 14.0 0.00 0.00 0.00 32 1009.7
20181211210625 72 31 4.0 14.0 0.00 0.00 0.00 32 1009.8
20181211210323 72 74 4.0 11.0 0.00 0.00 0.00 32 1009.6
20181211210023 72 9 4.0 11.0 0.00 0.00 0.00 32 1009.7
20181211205721 72 36 6.0 12.0 0.00 0.00 0.00 33 1009.7
20181211205703 72 40 7.0 14.0 0.00 0.00 0.00 32 1009.7